ATLAS 5 CENTAUR DEB, 46605

Orbit data source: Space-Track

ATLAS 5 CENTAUR DEB, 46605 is space debris in HEO originally from a launch on Wed, 17 Oct 2018 UTC launched from the Air Force Eastern Test Range (AFETR). Debris objects in space refer to the collection of defunct objects orbiting the Earth. Examples of debris include non-operational satellites, rocket bodies, and fragments generated from explosions, collisions, or faulty payload assembly.

Loading next visibility...
Identifier
46605, 2018-079CD
Orbit
HEO
Country
Flag of USUS
Related business
Flag of USUnited Launch Alliance/Lockheed Martin (US)
Manufacturer
ULA Decatur
Mission
Spacecraft
Bus & Motor
Unknown
Mass
Unknown
Launch date (UTC)
2018-10-17 (8 years ago)
Launch vehicle
Unknown
Launch site
Air Force Eastern Test Range (AFETR)
Object type
Payload
Rocket body
Debris
Shape & HBR
Unknown shape, 1.1 m
Radar Cross Section
Medium (>0.1 m² and <1 m²)

Expand to show TLE details & history
Last TLE update: 11 months ago

TLE from 11 months ago
0 ATLAS 5 CENTAUR DEB
1 46605U 18079CD  25214.81309191 -.00000155  00000-0  00000-0 0  9994
2 46605  12.6842  58.3574 4447705 282.5578  32.4732  1.91614113 41773
Epoch: 2025-08-02T19:30Z
TLE epoch observation values (Epoch: 2025-08-02T19:30:51.141Z)
Latitude
Longitude
174.05174°
Altitude
13,662.22 km
Speed
5.022 km/s
True Right ascension
03h 53m 38s
True Declination
0° 00' 00"
Sunlit
Object was in daylight at epoch
Visualization orbit readout
Latitude
Unknown
Longitude
Unknown
Altitude
Unknown
Speed
Unknown
Apparent Right ascension
Unknown
Apparent Declination
Unknown
Sunlit
N/A
Visualization observer readout
Local Sidereal Time
21:41:30
Azimuth
Unknown
Elevation
Unknown
Doppler factor
Unknown
Orbital elements
Apogee altitude
33,184.229 km
Perigee altitude
8,825.795 km
Semi-major axis
27,383.149 km
Eccentricity
0.44477
Inclination
12.6842°
RAAN
58.3574°
Arg. of periapsis
282.5578°
True anomaly
77.32454°
Mean anomaly
32.4732°
Eccentric anomaly
52.76108°
Mean motion
0.47898 °/min
Orbital period
751.6 mins
BSTAR
0
Loading maneuver chart data...
Computing Atmospheric mass density...

Documentation

Showing up to 5 results
|